User: anonymous   Login
Location: Unspecified
(0.0000°N, 0.0000°E)
Time: 15:17:53
(UTC+00:00)
Language:

HORYU 4 - Orbit

View from above orbital plane
View from above orbital plane
View from above satellite
View from above satellite

Ground track
Ground track

The orbit data is extracted from the following two-line orbital elements,

1 41340U 16012D   18344.93786083 +.00000497 +00000-0 +31203-4 0  9999
2 41340 031.0049 262.1197 0013865 046.4560 313.7225 15.01125462154478
Epoch (UTC): 10 December 2018 22:30:31
Eccentricity: 0.0013865
inclination: 31.0049°
perigee height: 554 km
apogee height: 573 km
right ascension of ascending node: 262.1197°
argument of perigee: 46.4560°
revolutions per day: 15.01125462
mean anomaly at epoch: 313.7225°
orbit number at epoch: 15447

The dashed part of the orbit path shows where the satellite is in the earth's shadow,  

DLR